Location: Feydey
(46.3431°N, 7.0106°E)
Time: 21:18:39
(UTC+00:00)

Cosmos 1603 - Pass Details

Date: 30 October 2021
Orbit: 829 x 861 km, 71.0° (Epoch: 27 November)

Event Time Altitude Azimuth Distance (km) Brightness Sun altitude
Rises 05:12:34 0° 339° (NNW) 3,447 6.6 -10.5°
Reaches altitude 10° 05:15:35 10° 354° (N) 2,508 6.0 -10.0°
Maximum altitude 05:20:06 23° 46° (NE) 1,752 5.8 -9.2°
Drops below altitude 10° 05:24:37 10° 98° (E) 2,498 7.9 -8.5°
Sets 05:27:35 0° 112° (ESE) 3,428 9.0 -8.0°
